SCP
0 0 0 0 0 0 0 0 0 0 0 0 0 0 0 0 0 0 0 0 0 0 0 0 0 0 0 0 0 0 0 0 0 0 0 0 0 0 0 0 0 0 0
0 0 0 0 0 0 0 0 0 0 0 0 0 0 0 0 0 0 0 0 0 0 0 0 0 0 0 0 0 0 0 0 0 0 0 0 0 0 0 0 0 0 0
0 0 0 0 0 0 0 0 0 0 0 0 0 0 0 0 0 0 0 0 0 0 0 0 0 0 0 0 0 0 0 0 0 0 0 0 0 0 0 0 0 0 0
0 0 0 0 0 0 0 0 0 0 0 0 0 0 0 0 0 0 0 0 0 0 0 0 0 0 0 0 0 0 0 0 0 0 0 0 0 0 0 0 0 0 0
0 0 0 0 0 0 0 0 0 0 0 0 0 0 0 0 0 0 0 0 0 0 0 0 0 0 0 0 0 0 0 0 0 0 0 0 0 0 0 0 0 0 0
0 0 0 0 0 0 0 0 0 0 0 0 0 0 0 0 0 0 0 0 0 0 0 0 0 0 0 0 0 0 0 0 0 0 0 0 0 0 0 0 0 0 0
0 0 0 0 0 0 0 0 0 0 0 0 0 0 0 0 0 0 0 0 0 0 0 0 0 0 0 0 0 0 0 0 0 0 0 0 0 0 0 0 0 0 0
0 0 0 0 0 0 0 0 0 0 0 0 0 0 0 0 0 0 0 0 0 0 0 0 0 0 0 0 0 0 0 0 0 0 0 0 0 0 0 0 0 0 0
0 0 0 0 0 0 0 0 0 0 0 0 0 0 0 0 0 0 0 0 0 0 0 0 0 0 0 0 0 0 0 0 0 0 0 0 0 0 0 0 0 0 0
0 0 0 0 0 0 0 0 0 0 0 0 0 0 0 0 0 0 0 0 0 0 0 0 0 0 0 0 0 0 0 0 0 0 0 0 0 0 0 0 0 0 0
0 0 0 0 0 0 0 0 0 0 0 0 0 0 0 0 0 0 0 0 0 0 0 0 0 0 0 0 0 0 0 0 0 0 0 0 0 0 0 0 0 0 0
0 0 0 0 0 0 0 0 0 0 0 0 0 0 0 0 0 0 0 0 0 0 0 0 0 0 0 0 0 0 0 0 0 0 0 0 0 0 0 0 0 0 0
0 0 0 0 0 0 0 0 0 0 0 0 0 0 0 0 0 0 0 0 0 0 0 0 0 0 0 0 0 0 0 0 0 0 0 0 0 0 0 0 0 0 0
0 0 0 0 0 0 0 0 0 0 0 0 0 0 0 0 0 0 0 0 0 0 0 0 0 0 0 0 0 0 0 0 0 0 0 0 0 0 0 0 0 0 0
0 0 0 0 0 0 0 0 0 0 0 0 0 0 0 0 0 0 0 0 0 0 0 0 0 0 0 0 0 0 0 0 0 0 0 0 0 0 0 0 0 0 0
0 0 0 0 0 0 0 0 0 0 0 0 0 0 0 0 0 0 0 0 0 0 0 0 0 0 0 0 0 0 0 0 0 0 0 0 0 0 0 0 0 0 0
0 0 0 0 0 0 0 0 0 0 0 0 0 0 0 0 0 0 0 0 0 0 0 0 0 0 0 0 0 0 0 0 0 0 0 0 0 0 0 0 0 0 0
0 0 0 0 0 0 0 0 0 0 0 0 0 0 0 0 0 0 0 0 0 0 0 0 0 0 0 0 0 0 0 0 0 0 0 0 0 0 0 0 0 0 0
0 0 0 0 0 0 0 0 0 0 0 0 0 0 0 0 0 0 0 0 0 0 0 0 0 0 0 0 0 0 0 0 0 0 0 0 0 0 0 0 0 0 0
0 0 0 0 0 0 0 0 0 0 0 0 0 0 0 0 0 0 0 0 0 0 0 0 0 0 0 0 0 0 0 0 0 0 0 0 0 0 0 0 0 0 0
0 0 0 0 0 0 0 0 0 0 0 0 0 0 0 0 0 0 0 0 0 0 0 0 0 0 0 0 0 0 0 0 0 0 0 0 0 0 0 0 0 0 0
0 0 0 0 0 0 0 0 0 0 0 0 0 0 0 0 0 0 0 0 0 0 0 0 0 0 0 0 0 0 0 0 0 0 0 0 0 0 0 0 0 0 0
0 0 0 0 0 0 0 0 0 0 0 0 0 0 0 0 0 0 0 0 0 0 0 0 0 0 0 0 0 0 0 0 0 0 0 0 0 0 0 0 0 0 0
0 0 0 0 0 0 0 0 0 0 0 0 0 0 0 0 0 0 0 0 0 0 0 0 0 0 0 0 0 0 0 0 0 0 0 0 0 0 0 0 0 0 0
0 0 0 0 0 0 0 0 0 0 0 0 0 0 0 0 0 0 0 0 0 0 0 0 0 0 0 0 0 0 0 0 0 0 0 0 0 0 0 0 0 0 0
0 0 0 0 0 0 0 0 0 0 0 0 0 0 0 0 0 0 0 0 0 0 0 0 0 0 0 0 0 0 0 0 0 0 0 0 0 0 0 0 0 0 0
Wind_Speed_500mb
92 93 94 93 89 84 84 78 74 73 74 68 61 55 50 45 46 45 43 38 33 28 22 16 13 10 6 12 18 24 29 33 35 42 47 51 50 52 49 46 48 47 41
91 90 91 85 82 81 81 77 76 76 79 71 64 58 53 46 49 51 47 41 36 30 23 20 17 12 8 12 17 23 30 35 39 41 46 49 49 47 44 44 42 40 33
87 84 83 81 79 79 78 73 74 77 82 77 67 63 56 52 58 55 49 42 37 30 25 24 19 13 11 13 18 22 29 35 40 43 44 45 44 45 40 35 38 34 26
76 77 79 79 79 79 74 77 70 79 87 78 72 65 56 57 63 56 50 44 37 31 28 25 20 16 14 15 18 21 28 35 39 43 44 43 42 41 38 35 31 29 24
70 72 75 77 76 75 76 71 72 77 91 69 73 60 60 65 64 57 50 42 36 33 30 27 22 17 16 16 19 23 30 36 40 42 42 42 42 40 37 33 33 29 26
63 66 69 70 70 70 72 72 76 81 85 79 59 62 72 69 61 54 47 42 38 34 31 26 21 19 18 19 20 25 31 36 39 41 42 41 41 37 33 32 33 32 26
59 61 62 60 61 61 62 70 79 87 73 69 65 66 70 67 60 53 48 43 38 35 32 26 22 20 21 22 23 27 32 36 39 42 41 39 41 33 33 26 29 31 32
50 51 49 51 52 60 64 76 85 79 80 75 67 72 71 64 57 53 49 44 40 36 32 26 23 20 22 25 27 29 32 33 35 37 39 38 38 35 33 32 31 34 34
49 48 50 52 57 64 70 78 84 83 75 71 73 75 70 63 58 53 49 45 40 36 32 27 22 23 29 31 33 32 34 33 36 39 41 41 40 35 33 34 31 34 34
49 47 51 55 58 62 67 71 77 73 74 74 74 71 66 62 56 52 48 45 42 38 32 26 23 29 38 36 36 36 37 35 39 39 37 37 39 37 33 34 33 34 34
46 47 49 53 61 64 67 72 75 77 73 76 75 71 66 61 57 52 48 45 40 35 29 23 27 44 40 40 39 39 38 39 40 41 39 38 39 40 37 35 37 38 37
49 48 50 55 60 69 71 76 79 77 80 80 77 72 68 63 59 52 46 41 37 31 22 22 42 43 43 43 42 42 42 42 41 42 42 41 38 39 37 37 38 41 43
48 50 51 55 61 71 75 79 82 82 85 83 79 74 70 66 58 49 44 38 31 20 26 34 47 45 45 45 44 44 43 40 42 44 44 44 41 39 39 39 40 44 46
35 46 51 56 61 66 73 75 81 86 86 82 79 75 69 61 55 49 41 29 24 28 35 46 48 46 46 47 44 42 41 42 44 45 47 47 44 43 41 43 45 47 49
31 39 49 58 61 67 73 78 83 83 82 81 76 69 65 61 49 38 29 29 28 41 45 50 46 46 46 44 43 41 41 42 44 46 47 47 47 45 43 44 48 50 55
29 34 44 54 65 72 78 84 84 78 74 69 62 57 52 42 40 38 32 30 51 50 52 48 48 46 45 44 44 42 40 41 43 44 45 45 46 46 46 44 48 53 57
27 31 38 47 61 73 81 84 83 80 74 64 58 55 56 51 43 30 33 58 57 53 52 51 49 48 46 46 46 45 42 40 41 42 43 42 43 47 48 46 47 54 59
24 26 31 39 50 62 75 80 82 78 72 67 63 64 55 48 40 53 67 55 54 57 53 54 51 49 47 46 45 44 43 43 43 42 41 42 43 46 46 46 46 50 56
21 22 25 31 38 49 63 77 73 65 61 62 64 63 55 57 65 69 68 53 58 57 55 52 51 50 48 46 45 45 44 43 43 43 42 43 43 45 46 45 47 52 56
14 16 19 23 29 40 51 59 61 60 58 58 59 63 68 65 70 75 53 58 56 52 55 54 52 51 49 48 47 45 43 43 42 43 43 44 44 43 46 47 46 48 50
14 14 13 16 22 26 34 45 51 55 57 61 69 68 67 75 74 55 57 52 54 58 58 57 55 52 51 49 46 44 42 41 42 43 42 42 44 43 42 44 46 45 48
10 11 13 16 17 23 34 41 47 54 62 69 72 71 67 63 57 55 56 57 53 61 60 61 57 53 51 49 47 44 41 41 42 42 41 40 41 41 40 40 41 43 43
13 12 12 14 19 25 35 44 50 54 60 60 61 58 56 50 51 54 55 56 68 65 61 60 56 53 53 50 47 45 43 41 42 43 41 40 40 39 39 39 37 39 39
17 17 17 19 22 28 35 41 47 50 51 53 52 48 50 55 57 58 59 63 65 59 57 58 57 53 52 50 49 49 47 45 44 42 45 42 41 39 38 39 38 36 37
20 22 25 29 33 38 44 50 56 62 61 58 56 55 55 56 56 60 65 66 63 61 57 58 58 55 51 48 49 50 50 49 46 45 45 47 44 42 41 40 38 38 37
25 27 31 35 39 44 48 51 53 53 52 51 52 54 57 61 63 64 62 61 61 60 60 59 57 57 56 53 48 50 51 49 48 48 50 49 50 48 45 43 41 40 39
Wind_Direction_500mb
233 234 235 238 239 238 238 237 235 233 232 232 230 229 225 237 236 224 215 218 221 223 229 236 234 236 277 323 335 338 341 343 340 338 339 344 348 351 351 350 352 356 3
230 231 235 236 237 237 236 236 233 230 228 229 226 223 222 238 234 214 215 217 219 223 228 230 224 226 264 307 322 329 334 337 336 337 338 341 344 347 351 346 353 354 359
228 228 232 235 234 235 236 234 232 230 220 222 223 219 221 239 221 211 214 215 219 223 226 227 220 233 273 299 312 323 330 334 334 333 336 336 341 342 348 345 343 349 355
228 228 231 233 235 235 236 233 231 225 225 215 220 215 228 226 214 212 214 214 218 223 226 226 225 238 268 293 307 318 327 331 333 333 334 334 337 339 339 340 341 341 344
228 230 234 235 236 236 234 231 225 221 218 228 211 219 225 214 211 212 212 214 220 224 225 224 230 247 271 287 302 319 326 328 329 331 328 328 332 333 335 333 330 333 332
234 237 239 238 235 231 230 222 220 214 210 208 215 231 214 209 210 211 212 216 221 223 224 227 240 255 268 283 299 315 321 325 326 324 323 321 325 323 325 321 323 321 332
240 242 240 233 226 224 215 217 219 203 207 213 225 217 209 209 209 209 214 218 220 222 225 230 244 261 278 288 301 311 316 321 322 320 314 314 313 316 313 308 306 310 308
237 236 232 224 222 216 216 218 201 214 211 213 217 208 208 210 209 211 216 219 220 222 226 233 245 265 278 291 299 306 309 313 316 314 305 306 309 309 306 302 297 298 302
234 232 227 222 222 219 210 213 220 209 211 213 209 207 208 210 210 213 217 219 221 225 228 233 249 278 282 287 294 299 304 308 312 315 310 308 307 304 297 289 286 291 300
234 233 229 222 223 223 222 219 215 213 218 210 208 208 211 212 212 215 217 219 224 226 228 238 263 278 277 282 289 295 301 306 309 309 305 305 302 300 291 279 274 279 286
234 231 231 226 224 225 223 221 219 218 211 209 209 210 211 212 215 216 218 221 225 226 232 250 271 268 273 281 288 294 299 303 303 304 304 301 301 296 289 278 267 270 274
242 234 232 230 226 224 225 222 219 216 211 209 210 211 212 214 216 217 218 220 221 224 241 264 265 270 276 281 286 291 295 300 301 302 299 298 296 296 289 280 267 266 269
249 242 234 231 228 227 226 221 216 212 212 212 212 214 215 215 216 216 215 216 216 229 257 265 268 271 275 278 283 286 292 294 296 296 296 294 293 291 283 277 270 267 269
254 254 247 239 233 228 225 222 219 217 215 216 217 216 216 216 216 212 209 208 222 262 274 261 265 268 271 274 276 280 285 288 290 292 292 292 291 288 280 272 269 269 270
246 245 243 239 233 228 224 222 221 223 225 224 223 223 220 218 213 206 211 234 261 280 254 261 265 267 268 269 273 278 282 285 287 288 288 289 287 284 282 275 271 270 269
256 250 245 240 233 227 224 221 221 224 227 226 226 226 220 208 205 218 234 268 278 253 263 264 264 265 267 269 273 275 278 280 282 285 286 286 283 280 278 274 271 268 269
258 254 251 245 238 232 226 225 223 220 220 220 217 214 207 211 217 235 267 265 252 263 264 264 266 265 267 271 275 279 282 284 285 285 285 286 282 278 275 273 272 273 271
269 260 255 252 247 239 233 229 227 226 222 215 214 212 212 220 242 254 262 251 254 259 262 263 263 265 268 272 275 280 282 284 285 285 285 285 283 281 277 272 271 271 274
283 271 265 259 251 245 238 233 230 226 227 227 224 219 220 238 252 258 259 249 258 260 262 263 265 267 271 274 277 279 281 283 285 287 289 289 287 284 281 278 272 269 271
307 291 277 267 263 252 241 232 227 226 229 230 228 232 242 250 254 264 244 250 257 266 271 268 267 269 271 273 275 277 280 282 286 288 288 288 287 286 285 283 278 276 274
334 314 291 268 262 251 236 227 225 228 229 232 236 242 256 259 255 246 253 257 267 269 271 268 266 267 269 270 273 275 278 281 283 286 289 291 291 289 285 284 283 279 276
350 332 312 289 262 237 226 229 231 233 234 237 244 252 254 252 250 249 251 256 263 268 270 268 265 265 267 269 270 272 275 278 280 283 286 289 290 291 291 289 287 285 280
335 321 303 283 260 243 235 234 234 238 245 260 267 266 260 260 255 252 252 254 263 264 264 264 265 265 265 266 269 272 274 276 277 280 282 284 287 289 290 289 287 284 282
312 300 290 280 272 261 252 248 253 260 268 271 267 268 268 264 263 261 259 265 265 263 264 266 266 264 264 267 269 271 273 273 275 278 281 283 284 286 287 289 288 284 280
304 290 277 268 264 262 261 263 268 274 277 276 272 265 264 266 266 267 273 272 268 264 263 264 266 267 265 266 270 273 275 276 277 276 276 279 281 280 283 284 285 284 281
302 292 284 277 273 270 269 270 271 273 274 273 271 270 268 268 269 270 269 268 266 265 264 263 264 266 268 269 269 269 271 272 273 273 275 276 276 277 278 279 279 279 279
Wind_Speed_850mb
92 93 94 93 89 84 84 78 74 73 74 68 61 55 50 45 46 45 43 38 33 28 22 16 13 10 6 12 18 24 29 33 35 42 47 51 50 52 49 46 48 47 41
91 90 91 85 82 81 81 77 76 76 79 71 64 58 53 46 49 51 47 41 36 30 23 20 17 12 8 12 17 23 30 35 39 41 46 49 49 47 44 44 42 40 33
87 84 83 81 79 79 78 73 74 77 82 77 67 63 56 52 58 55 49 42 37 30 25 24 19 13 11 13 18 22 29 35 40 43 44 45 44 45 40 35 38 34 26
76 77 79 79 79 79 74 77 70 79 87 78 72 65 56 57 63 56 50 44 37 31 28 25 20 16 14 15 18 21 28 35 39 43 44 43 42 41 38 35 31 29 24
70 72 75 77 76 75 76 71 72 77 91 69 73 60 60 65 64 57 50 42 36 33 30 27 22 17 16 16 19 23 30 36 40 42 42 42 42 40 37 33 33 29 26
63 66 69 70 70 70 72 72 76 81 85 79 59 62 72 69 61 54 47 42 38 34 31 26 21 19 18 19 20 25 31 36 39 41 42 41 41 37 33 32 33 32 26
59 61 62 60 61 61 62 70 79 87 73 69 65 66 70 67 60 53 48 43 38 35 32 26 22 20 21 22 23 27 32 36 39 42 41 39 41 33 33 26 29 31 32
50 51 49 51 52 60 64 76 85 79 80 75 67 72 71 64 57 53 49 44 40 36 32 26 23 20 22 25 27 29 32 33 35 37 39 38 38 35 33 32 31 34 34
49 48 50 52 57 64 70 78 84 83 75 71 73 75 70 63 58 53 49 45 40 36 32 27 22 23 29 31 33 32 34 33 36 39 41 41 40 35 33 34 31 34 34
49 47 51 55 58 62 67 71 77 73 74 74 74 71 66 62 56 52 48 45 42 38 32 26 23 29 38 36 36 36 37 35 39 39 37 37 39 37 33 34 33 34 34
46 47 49 53 61 64 67 72 75 77 73 76 75 71 66 61 57 52 48 45 40 35 29 23 27 44 40 40 39 39 38 39 40 41 39 38 39 40 37 35 37 38 37
49 48 50 55 60 69 71 76 79 77 80 80 77 72 68 63 59 52 46 41 37 31 22 22 42 43 43 43 42 42 42 42 41 42 42 41 38 39 37 37 38 41 43
48 50 51 55 61 71 75 79 82 82 85 83 79 74 70 66 58 49 44 38 31 20 26 34 47 45 45 45 44 44 43 40 42 44 44 44 41 39 39 39 40 44 46
35 46 51 56 61 66 73 75 81 86 86 82 79 75 69 61 55 49 41 29 24 28 35 46 48 46 46 47 44 42 41 42 44 45 47 47 44 43 41 43 45 47 49
31 39 49 58 61 67 73 78 83 83 82 81 76 69 65 61 49 38 29 29 28 41 45 50 46 46 46 44 43 41 41 42 44 46 47 47 47 45 43 44 48 50 55
29 34 44 54 65 72 78 84 84 78 74 69 62 57 52 42 40 38 32 30 51 50 52 48 48 46 45 44 44 42 40 41 43 44 45 45 46 46 46 44 48 53 57
27 31 38 47 61 73 81 84 83 80 74 64 58 55 56 51 43 30 33 58 57 53 52 51 49 48 46 46 46 45 42 40 41 42 43 42 43 47 48 46 47 54 59
24 26 31 39 50 62 75 80 82 78 72 67 63 64 55 48 40 53 67 55 54 57 53 54 51 49 47 46 45 44 43 43 43 42 41 42 43 46 46 46 46 50 56
21 22 25 31 38 49 63 77 73 65 61 62 64 63 55 57 65 69 68 53 58 57 55 52 51 50 48 46 45 45 44 43 43 43 42 43 43 45 46 45 47 52 56
14 16 19 23 29 40 51 59 61 60 58 58 59 63 68 65 70 75 53 58 56 52 55 54 52 51 49 48 47 45 43 43 42 43 43 44 44 43 46 47 46 48 50
14 14 13 16 22 26 34 45 51 55 57 61 69 68 67 75 74 55 57 52 54 58 58 57 55 52 51 49 46 44 42 41 42 43 42 42 44 43 42 44 46 45 48
10 11 13 16 17 23 34 41 47 54 62 69 72 71 67 63 57 55 56 57 53 61 60 61 57 53 51 49 47 44 41 41 42 42 41 40 41 41 40 40 41 43 43
13 12 12 14 19 25 35 44 50 54 60 60 61 58 56 50 51 54 55 56 68 65 61 60 56 53 53 50 47 45 43 41 42 43 41 40 40 39 39 39 37 39 39
17 17 17 19 22 28 35 41 47 50 51 53 52 48 50 55 57 58 59 63 65 59 57 58 57 53 52 50 49 49 47 45 44 42 45 42 41 39 38 39 38 36 37
20 22 25 29 33 38 44 50 56 62 61 58 56 55 55 56 56 60 65 66 63 61 57 58 58 55 51 48 49 50 50 49 46 45 45 47 44 42 41 40 38 38 37
25 27 31 35 39 44 48 51 53 53 52 51 52 54 57 61 63 64 62 61 61 60 60 59 57 57 56 53 48 50 51 49 48 48 50 49 50 48 45 43 41 40 39
Wind_Direction_850mb
233 234 235 238 239 238 238 237 235 233 232 232 230 229 225 237 236 224 215 218 221 223 229 236 234 236 277 323 335 338 341 343 340 338 339 344 348 351 351 350 352 356 3
230 231 235 236 237 237 236 236 233 230 228 229 226 223 222 238 234 214 215 217 219 223 228 230 224 226 264 307 322 329 334 337 336 337 338 341 344 347 351 346 353 354 359
228 228 232 235 234 235 236 234 232 230 220 222 223 219 221 239 221 211 214 215 219 223 226 227 220 233 273 299 312 323 330 334 334 333 336 336 341 342 348 345 343 349 355
228 228 231 233 235 235 236 233 231 225 225 215 220 215 228 226 214 212 214 214 218 223 226 226 225 238 268 293 307 318 327 331 333 333 334 334 337 339 339 340 341 341 344
228 230 234 235 236 236 234 231 225 221 218 228 211 219 225 214 211 212 212 214 220 224 225 224 230 247 271 287 302 319 326 328 329 331 328 328 332 333 335 333 330 333 332
234 237 239 238 235 231 230 222 220 214 210 208 215 231 214 209 210 211 212 216 221 223 224 227 240 255 268 283 299 315 321 325 326 324 323 321 325 323 325 321 323 321 332
240 242 240 233 226 224 215 217 219 203 207 213 225 217 209 209 209 209 214 218 220 222 225 230 244 261 278 288 301 311 316 321 322 320 314 314 313 316 313 308 306 310 308
237 236 232 224 222 216 216 218 201 214 211 213 217 208 208 210 209 211 216 219 220 222 226 233 245 265 278 291 299 306 309 313 316 314 305 306 309 309 306 302 297 298 302
234 232 227 222 222 219 210 213 220 209 211 213 209 207 208 210 210 213 217 219 221 225 228 233 249 278 282 287 294 299 304 308 312 315 310 308 307 304 297 289 286 291 300
234 233 229 222 223 223 222 219 215 213 218 210 208 208 211 212 212 215 217 219 224 226 228 238 263 278 277 282 289 295 301 306 309 309 305 305 302 300 291 279 274 279 286
234 231 231 226 224 225 223 221 219 218 211 209 209 210 211 212 215 216 218 221 225 226 232 250 271 268 273 281 288 294 299 303 303 304 304 301 301 296 289 278 267 270 274
242 234 232 230 226 224 225 222 219 216 211 209 210 211 212 214 216 217 218 220 221 224 241 264 265 270 276 281 286 291 295 300 301 302 299 298 296 296 289 280 267 266 269
249 242 234 231 228 227 226 221 216 212 212 212 212 214 215 215 216 216 215 216 216 229 257 265 268 271 275 278 283 286 292 294 296 296 296 294 293 291 283 277 270 267 269
254 254 247 239 233 228 225 222 219 217 215 216 217 216 216 216 216 212 209 208 222 262 274 261 265 268 271 274 276 280 285 288 290 292 292 292 291 288 280 272 269 269 270
246 245 243 239 233 228 224 222 221 223 225 224 223 223 220 218 213 206 211 234 261 280 254 261 265 267 268 269 273 278 282 285 287 288 288 289 287 284 282 275 271 270 269
256 250 245 240 233 227 224 221 221 224 227 226 226 226 220 208 205 218 234 268 278 253 263 264 264 265 267 269 273 275 278 280 282 285 286 286 283 280 278 274 271 268 269
258 254 251 245 238 232 226 225 223 220 220 220 217 214 207 211 217 235 267 265 252 263 264 264 266 265 267 271 275 279 282 284 285 285 285 286 282 278 275 273 272 273 271
269 260 255 252 247 239 233 229 227 226 222 215 214 212 212 220 242 254 262 251 254 259 262 263 263 265 268 272 275 280 282 284 285 285 285 285 283 281 277 272 271 271 274
283 271 265 259 251 245 238 233 230 226 227 227 224 219 220 238 252 258 259 249 258 260 262 263 265 267 271 274 277 279 281 283 285 287 289 289 287 284 281 278 272 269 271
307 291 277 267 263 252 241 232 227 226 229 230 228 232 242 250 254 264 244 250 257 266 271 268 267 269 271 273 275 277 280 282 286 288 288 288 287 286 285 283 278 276 274
334 314 291 268 262 251 236 227 225 228 229 232 236 242 256 259 255 246 253 257 267 269 271 268 266 267 269 270 273 275 278 281 283 286 289 291 291 289 285 284 283 279 276
350 332 312 289 262 237 226 229 231 233 234 237 244 252 254 252 250 249 251 256 263 268 270 268 265 265 267 269 270 272 275 278 280 283 286 289 290 291 291 289 287 285 280
335 321 303 283 260 243 235 234 234 238 245 260 267 266 260 260 255 252 252 254 263 264 264 264 265 265 265 266 269 272 274 276 277 280 282 284 287 289 290 289 287 284 282
312 300 290 280 272 261 252 248 253 260 268 271 267 268 268 264 263 261 259 265 265 263 264 266 266 264 264 267 269 271 273 273 275 278 281 283 284 286 287 289 288 284 280
304 290 277 268 264 262 261 263 268 274 277 276 272 265 264 266 266 267 273 272 268 264 263 264 266 267 265 266 270 273 275 276 277 276 276 279 281 280 283 284 285 284 281
302 292 284 277 273 270 269 270 271 273 274 273 271 270 268 268 269 270 269 268 266 265 264 263 264 266 268 269 269 269 271 272 273 273 275 276 276 277 278 279 279 279 279